Theta_e
297 297 295 294 294 297 295 295 290 291 293 296 295 295 296 300 300 298 296 296 296 298 300 304 305 306 308 308 310 310 308 306 305 305 305 304 302 302 302 301 301 300 299 297
293 298 295 292 295 295 297 297 293 292 291 295 295 297 297 297 297 294 292 292 293 294 296 296 298 303 305 307 307 309 310 308 307 305 304 304 303 302 302 301 300 299 297 296
288 295 291 285 290 294 294 296 295 289 292 293 293 294 293 293 294 293 292 292 291 291 292 294 295 298 297 300 304 304 305 307 307 306 304 304 303 302 301 299 299 298 297 295
285 286 280 293 297 297 295 296 295 294 295 294 294 293 292 292 291 290 291 291 291 290 290 291 293 293 294 296 298 299 300 302 303 304 304 304 303 301 301 301 298 297 296 294
282 282 286 289 293 293 292 291 295 294 293 292 292 291 290 292 292 292 291 291 292 292 292 292 291 292 292 293 294 294 294 296 298 299 303 304 301 294 300 299 298 292 289 291
284 281 279 286 292 299 297 286 295 296 293 290 291 285 288 293 294 293 293 292 290 291 291 290 290 291 290 290 289 290 291 293 294 295 297 295 302 301 293 299 296 295 291 290
283 282 283 289 292 297 284 285 294 296 292 291 289 291 293 294 292 293 292 292 293 291 289 289 290 290 289 289 288 289 289 289 289 292 294 298 297 297 298 293 294 290 290 289
284 281 279 291 290 287 290 291 293 291 291 291 288 288 290 289 288 289 288 288 288 287 287 288 289 289 288 288 290 290 289 288 289 289 291 295 296 297 293 290 288 289 290 290
286 284 289 292 289 290 291 290 289 289 289 288 287 285 286 286 287 287 288 288 288 287 288 289 290 289 287 288 289 288 287 286 287 288 288 289 289 291 293 294 293 291 289 288
284 286 286 288 287 288 290 287 287 287 287 287 284 284 283 285 286 287 288 289 289 289 288 288 290 290 289 289 288 287 285 286 286 286 289 291 291 292 293 295 293 292 291 290
284 286 285 285 286 286 286 287 287 287 286 286 286 285 286 287 288 288 289 289 289 288 288 288 288 288 288 288 288 287 286 285 286 286 288 289 289 291 292 294 295 293 291 291
281 287 285 285 286 287 286 286 287 286 286 286 287 287 289 288 289 289 287 287 286 286 286 286 286 286 287 287 287 285 285 285 286 286 287 289 290 290 291 291 290 291 291 292
284 288 287 287 288 288 286 287 287 287 287 287 288 288 287 286 286 287 285 285 284 284 285 285 285 285 286 284 284 283 284 284 285 285 287 288 289 289 288 288 289 289 289 289
288 287 285 286 284 287 287 287 290 288 288 288 287 287 286 286 286 285 284 284 285 284 284 284 284 283 284 286 286 285 285 284 284 286 287 288 288 289 289 288 287 287 287 289
286 287 287 287 286 286 287 288 287 286 285 285 285 285 284 283 283 283 284 284 284 284 284 284 284 284 286 286 285 284 284 284 285 285 286 287 288 288 288 288 288 288 285 286
286 286 285 285 284 285 287 286 285 284 284 284 284 284 283 283 282 282 283 284 282 281 283 283 283 285 285 285 285 285 285 285 284 285 285 284 287 287 287 287 287 288 287 287
282 282 282 282 282 284 285 286 285 284 283 283 283 283 282 282 282 282 282 282 282 283 283 283 283 285 285 285 285 284 284 284 284 284 284 285 285 286 287 287 287 287 287 286
285 284 284 283 282 284 283 284 284 283 282 283 282 280 278 277 280 281 280 280 277 282 283 284 284 284 284 284 284 284 284 284 283 283 284 284 285 286 287 287 287 287 287 286
285 285 285 284 284 284 283 283 282 283 281 280 276 274 278 279 274 274 276 274 280 281 282 284 283 283 284 284 284 284 284 284 283 283 283 283 284 286 286 287 287 287 286 285
285 285 285 284 284 283 282 280 280 280 281 282 277 281 274 272 272 272 275 277 282 283 284 284 284 283 283 283 284 284 284 284 284 284 283 284 285 285 286 286 286 286 286 285
283 283 282 281 278 278 279 279 278 279 282 283 281 276 275 274 271 270 273 277 282 283 284 284 283 283 284 283 284 284 285 284 284 284 284 284 285 285 286 286 285 285 285 285
282 281 279 281 278 279 275 278 280 276 277 282 281 277 271 275 272 272 274 279 283 284 284 283 283 283 283 283 284 285 285 285 284 284 284 284 285 285 285 285 285 285 285 285
281 281 280 279 279 279 279 280 280 282 281 281 281 278 275 277 277 280 279 282 282 284 283 282 283 283 283 284 285 285 285 285 284 284 284 285 285 285 285 284 284 284 284 284
281 282 281 281 281 281 281 281 281 282 280 280 278 273 279 280 279 282 283 283 282 283 283 283 283 283 283 284 284 285 285 285 285 285 284 284 285 285 284 283 282 283 283 283
282 282 282 281 281 281 282 282 281 281 280 280 280 279 279 279 282 282 282 282 282 282 282 283 283 283 283 284 284 284 284 284 285 285 284 284 284 285 284 284 284 283 283 283
282 282 282 283 282 281 281 280 279 278 278 273 272 270 271 273 281 282 282 281 281 282 281 283 284 283 283 283 283 283 283 284 284 284 284 284 284 284 284 284 284 284 284 284
283 280 282 281 281 281 280 280 277 275 274 273 272 271 271 270 280 281 281 281 281 281 282 283 283 281 282 282 283 283 283 283 284 283 284 284 284 284 284 284 285 285 284 284
Wind_Speed
18 6 5 5 8 20 21 28 17 10 16 15 8 7 6 7 8 9 9 9 8 7 6 7 7 6 6 7 7 3 2 3 4 4 4 5 6 7 8 9 9 9 8 6
21 14 9 9 6 11 23 21 5 9 10 2 5 6 7 6 8 8 7 6 5 5 5 6 5 4 4 3 2 4 5 7 7 8 8 8 7 8 9 10 8 8 8 8
16 10 6 9 23 13 5 4 9 11 4 10 5 7 7 9 8 8 6 5 4 5 5 4 4 3 2 1 0 2 3 5 5 7 10 12 11 10 10 10 9 12 11 12
3 6 12 9 9 16 15 10 1 3 3 9 5 6 8 8 9 9 7 6 4 2 2 3 2 3 3 3 3 3 4 5 6 6 8 9 10 12 12 11 13 12 12 11
5 6 4 5 7 14 17 15 10 8 4 7 8 4 1 4 6 9 9 8 5 3 3 3 4 4 3 4 4 4 6 6 6 6 7 9 10 9 11 9 10 9 7 11
4 6 12 7 10 13 9 8 17 19 18 17 15 7 7 13 10 8 6 4 3 4 2 2 6 5 3 5 4 7 7 7 6 6 7 8 12 13 9 11 12 10 11 13
6 5 7 6 5 12 11 9 21 22 19 22 18 5 8 11 6 6 6 7 6 5 6 6 6 5 6 7 8 9 7 7 7 7 8 10 9 8 8 10 9 10 12 11
4 5 11 8 5 12 4 4 11 14 15 16 6 7 10 9 8 7 7 4 3 3 5 6 5 3 7 7 9 7 7 8 8 8 6 7 7 7 6 6 7 9 11 9
11 8 2 10 1 2 5 11 6 11 9 9 9 7 9 7 7 5 5 4 3 3 3 4 4 2 6 7 7 8 7 9 9 9 8 7 7 9 6 7 8 9 7 8
4 6 5 7 4 5 7 6 8 7 9 10 9 8 7 7 6 6 6 4 3 2 5 6 5 5 5 7 7 7 8 10 10 7 11 10 7 8 8 8 8 9 8 11
2 3 7 2 4 8 6 7 9 9 9 9 10 8 8 7 6 5 4 2 1 2 5 7 6 6 5 7 7 7 7 7 10 8 7 9 9 9 9 10 10 9 10 11
6 8 5 8 7 7 9 8 11 9 7 7 8 9 6 6 5 4 3 3 3 5 6 6 6 7 7 6 6 6 9 8 7 6 6 9 9 9 16 15 12 17 15 14
4 6 5 9 8 6 9 10 8 9 7 9 6 7 7 5 4 4 3 2 3 4 6 6 6 6 6 5 5 6 10 10 8 8 8 9 11 11 11 7 14 13 15 14
7 8 6 4 6 8 8 7 7 5 5 8 6 6 5 5 4 2 1 3 4 5 6 6 7 7 6 9 12 13 14 15 10 11 9 9 9 12 10 10 8 6 11 13
5 5 5 5 5 6 5 7 9 9 7 6 5 6 6 5 3 0 3 4 5 6 6 6 11 13 11 11 12 13 13 13 13 13 12 13 10 9 10 11 10 9 3 6
5 5 6 6 7 7 9 8 10 8 7 6 7 6 6 5 3 2 3 4 4 6 8 10 11 13 15 13 14 13 13 18 16 12 12 13 11 10 10 10 11 9 7 7
4 4 4 4 7 7 11 11 11 11 7 7 7 7 6 5 4 4 5 5 6 6 7 9 12 12 12 13 16 13 13 13 16 13 12 12 11 11 10 9 11 9 8 8
7 7 7 7 8 9 7 6 7 8 6 7 7 6 5 4 5 5 5 6 4 4 5 9 10 12 15 16 15 13 13 13 12 12 12 12 11 11 10 10 10 9 7 7
9 9 8 8 8 9 9 9 7 7 7 6 6 4 4 3 5 5 5 3 4 8 8 8 13 15 17 17 16 13 13 14 13 12 12 13 11 11 10 8 9 8 8 8
8 5 7 7 8 8 9 5 7 7 6 6 6 4 2 5 5 5 4 3 5 7 8 12 15 15 15 17 18 12 13 13 12 10 9 9 9 8 8 9 8 8 8 9
8 8 10 9 7 7 8 9 8 8 9 8 6 5 6 4 4 3 3 3 6 6 9 12 11 10 10 14 14 11 11 10 8 7 6 6 7 6 9 7 8 8 9 9
7 8 8 9 6 5 3 5 5 5 5 7 6 4 2 6 3 4 4 5 4 8 7 8 9 14 14 19 10 10 10 8 6 5 5 4 5 5 6 6 6 7 8 9
5 5 6 7 7 6 4 5 6 7 8 8 7 6 5 2 1 3 5 5 6 8 8 7 12 17 19 11 9 9 9 8 6 4 4 4 4 4 4 5 5 6 7 7
6 6 5 5 5 5 6 6 7 8 8 6 6 5 4 2 4 3 4 5 8 8 8 8 11 18 19 9 8 8 8 6 5 4 3 3 1 2 2 4 4 4 6 7
5 5 5 6 6 5 5 5 4 4 5 5 6 4 4 3 4 2 3 4 6 7 7 9 12 17 10 9 8 8 7 7 5 3 2 1 1 2 3 3 4 5 5 6
6 5 5 7 6 5 4 4 4 3 4 3 1 2 3 2 3 3 2 3 4 7 5 6 6 8 8 9 9 8 7 6 4 3 3 2 3 4 4 4 5 4 4 5
4 4 4 3 3 4 4 5 5 5 4 4 3 3 3 2 3 1 2 2 3 4 5 5 6 6 7 8 8 8 7 6 7 5 5 4 4 4 4 4 4 4 4 5
Wind_Direction
247 220 196 235 231 216 214 224 201 193 191 186 178 172 149 117 101 91 85 84 88 94 100 105 92 80 77 73 62 97 166 202 247 264 255 226 198 193 182 181 183 179 162 153
247 236 209 241 245 235 221 226 206 156 198 157 122 121 135 127 119 108 105 102 109 122 109 84 84 87 89 94 120 126 175 208 205 199 206 224 214 200 195 194 182 167 170 180
245 225 189 263 217 197 183 161 179 203 207 157 152 157 149 148 137 136 137 127 93 74 77 85 71 63 17 354 279 271 300 298 257 231 216 206 205 201 200 190 179 197 189 179
254 123 216 272 184 187 184 196 221 293 215 192 156 144 137 153 145 141 155 160 150 146 84 50 40 328 311 304 300 307 268 253 259 239 232 221 213 205 207 204 204 199 197 187
192 221 346 278 236 188 174 218 214 210 151 114 105 72 12 185 160 172 176 179 177 206 194 203 247 274 299 309 305 299 281 274 270 261 250 236 224 223 216 212 211 208 185 184
165 208 208 215 199 174 126 256 200 198 182 157 150 181 213 186 191 181 171 148 207 225 242 275 283 282 296 287 278 277 275 267 266 265 255 240 236 231 221 221 208 203 214 194
191 228 280 231 153 136 169 229 184 190 177 169 182 209 154 168 162 171 175 197 217 214 232 258 295 320 295 289 281 266 271 270 271 258 253 248 239 238 242 225 230 210 213 201
173 199 253 177 129 187 198 29 151 153 162 158 151 123 121 140 164 172 192 218 257 258 270 281 291 294 282 280 276 284 281 278 273 267 248 238 223 229 220 214 231 231 223 218
183 200 189 188 160 135 140 145 156 141 146 139 136 136 144 159 170 178 185 197 212 198 290 314 316 291 289 283 298 294 287 272 268 263 242 234 214 241 231 221 227 227 221 214
120 208 186 162 96 135 143 135 129 124 140 143 146 151 161 165 172 175 179 186 168 358 325 314 317 304 272 298 298 291 284 289 285 260 261 246 232 234 230 239 227 227 221 219
247 88 75 49 128 141 128 123 124 133 144 149 143 171 167 175 178 174 162 121 61 262 259 266 276 286 288 280 282 290 285 280 279 263 246 257 242 235 224 232 223 228 221 213
217 177 132 175 168 138 136 147 151 142 141 153 156 160 152 164 162 147 165 181 224 252 266 276 272 262 259 263 267 283 294 295 288 274 252 256 257 266 250 246 223 223 223 212
175 134 130 141 153 152 154 163 160 151 154 146 135 143 144 149 158 149 177 262 268 256 257 270 278 277 279 285 294 299 300 299 292 283 268 263 259 253 259 262 239 228 217 220
107 103 79 144 183 171 154 161 132 120 129 138 127 112 114 137 153 155 311 300 293 286 273 274 288 298 313 321 317 307 300 293 289 288 274 259 250 253 248 248 245 242 226 223
106 73 148 142 129 142 113 133 131 139 134 129 133 142 148 150 147 232 305 298 284 281 288 301 315 315 317 313 303 294 292 287 281 279 278 270 254 246 248 244 243 242 181 211
188 181 149 164 178 161 152 161 152 165 160 151 156 163 150 135 158 218 270 279 291 290 303 312 308 310 309 298 291 287 283 274 267 268 268 269 258 241 237 235 239 232 210 204
150 213 172 205 188 177 186 185 181 173 149 157 163 148 155 180 208 234 243 248 256 274 297 303 302 303 302 298 293 286 282 275 263 264 258 253 251 250 232 224 230 228 214 182
214 223 202 185 177 172 166 160 144 147 161 162 148 165 180 195 221 234 250 254 268 291 312 306 304 307 300 296 287 281 277 271 262 254 253 250 242 241 234 222 222 225 217 186
196 208 211 206 172 168 152 149 155 152 152 151 142 156 185 240 239 243 261 297 320 322 312 314 310 304 302 298 290 286 282 278 266 252 246 244 244 238 223 215 210 205 197 187
182 176 160 136 128 140 142 133 138 135 151 162 162 177 217 261 255 270 280 257 307 293 303 313 310 306 304 302 295 291 288 284 277 260 243 237 241 228 218 208 206 204 194 192
160 147 142 137 132 129 143 149 148 164 178 180 181 185 212 259 267 265 308 315 290 277 304 309 305 304 306 307 302 293 297 287 280 268 247 243 228 207 222 207 202 196 196 194
129 129 128 133 131 137 153 155 148 137 162 183 193 218 237 267 291 306 252 253 299 307 304 311 305 312 314 313 300 297 296 300 279 265 241 228 226 221 215 209 202 196 194 192
116 128 130 153 156 167 163 170 167 178 188 200 205 220 215 228 233 296 300 321 318 308 310 302 310 314 323 316 305 306 307 300 286 275 266 249 239 224 203 199 190 179 176 170
147 160 163 153 142 147 177 194 189 195 193 197 211 203 183 235 288 248 292 285 292 298 301 301 319 329 330 321 321 315 313 304 291 287 277 248 221 147 142 139 134 133 133 133
169 172 165 164 175 200 190 180 175 180 162 162 168 163 179 199 221 269 273 272 289 300 306 308 323 335 329 328 326 322 321 317 309 303 318 354 60 78 83 94 113 122 126 130
179 179 188 191 194 185 175 163 167 159 141 153 248 216 251 249 264 251 260 285 288 304 311 314 322 332 331 330 337 338 339 336 340 354 20 43 72 74 79 86 91 96 115 128
193 171 178 199 205 177 173 172 155 182 172 157 189 228 216 237 250 260 302 286 291 299 307 310 325 328 335 337 347 352 357 0 9 15 25 34 37 52 68 80 84 84 88 104